Freedom, CA

6:51 PM PST on February 25, 2017 (GMT -0800)
Watsonville Municipal

Weather History for KWVI - February, 2013

Change the Weather History Date:

Wednesday, February 6, 2013

  Actual Average Record
Temperature  
Mean Temperature 46 °F 51 °F  
Max Temperature 57 °F 62 °F 76 °F (2011)
Min Temperature 35 °F 41 °F 29 °F (2003)
Degree Days  
Heating Degree Days 19    
Month to date heating degree days 92  
Since 1 July heating degree days 1822  
Cooling Degree Days 0    
Month to date cooling degree days 0  
Year to date cooling degree days 0  
Moisture  
Dew Point 40 °F    
Average Humidity 81    
Maximum Humidity 100    
Minimum Humidity 61    
Precipitation  
Precipitation 0.00 in - 1.35 in (1999)
Month to date precipitation 0.01  
Year to date precipitation 0.69  
Since 1 July precipitation 11.63  
Sea Level Pressure  
Sea Level Pressure 30.17 in    
Wind  
Wind Speed 3 mph (WNW)    
Max Wind Speed 9 mph    
Max Gust Speed 23 mph    
Visibility 10 miles    
Events      
T = Trace of Precipitation, MM = Missing Value Source: NWS Daily Summary

Daily Weather History Graph

Daily Weather History Graph

Search for Another Location

Airport or City:

Trip Planner

Search our weather history database for the weather conditions in past years. The results will help you decide how hot, cold, wet, or windy it might be!

Date:

Astronomy

Feb. 06, 2013 Rise Set
Actual Time 7:04 AM PST 5:38 PM PST
Civil Twilight 6:37 AM PST 6:05 PM PST
Nautical Twilight 6:07 AM PST 6:36 PM PST
Astronomical Twilight 5:36 AM PST 7:06 PM PST
Moon 3:51 AM PST (2/6) 2:04 PM PST (2/6)
Length of Visible Light 11h 27m
Length of Day
10h 33m
Waning Crescent, 16% of the Moon is Illuminated
Feb 6
Waning Crescent
Feb 9
New
Feb 17
First Quarter
Feb 25
Full
Mar 4
Last Quarter

Hourly Weather History & Observations

Time (PST) Temp. Windchill Dew Point Humidity Pressure Visibility Wind Dir Wind Speed Gust Speed Precip Events Conditions
12:53 AM 41.0 °F 38.0 °F 39.0 °F 93% 30.17 in 10.0 mi NW 4.6 mph - N/A   Clear
1:53 AM 39.9 °F 37.8 °F 37.9 °F 93% 30.17 in 10.0 mi NW 3.5 mph - 0.01 in   Partly Cloudy
2:06 AM 39.2 °F 35.9 °F 37.4 °F 93% 30.16 in 10.0 mi NW 4.6 mph - N/A   Mostly Cloudy
2:53 AM 39.9 °F 36.7 °F 37.9 °F 93% 30.16 in 10.0 mi NW 4.6 mph - N/A   Scattered Clouds
3:01 AM 39.2 °F 37.0 °F 37.4 °F 93% 30.16 in 10.0 mi WNW 3.5 mph - N/A   Mostly Cloudy
3:09 AM 39.2 °F - 37.4 °F 93% 30.16 in 10.0 mi Calm Calm - N/A   Partly Cloudy
3:53 AM 39.9 °F - 37.9 °F 93% 30.17 in 10.0 mi Calm Calm - N/A   Scattered Clouds
4:53 AM 37.9 °F - 36.0 °F 93% 30.16 in 5.0 mi Calm Calm - N/A   Clear
5:53 AM 36.0 °F 33.3 °F 35.1 °F 97% 30.17 in 8.0 mi NNW 3.5 mph - N/A   Clear
6:53 AM 37.9 °F 35.5 °F 37.0 °F 97% 30.18 in 10.0 mi WNW 3.5 mph - N/A   Clear
7:53 AM 39.9 °F 36.7 °F 37.9 °F 93% 30.19 in 10.0 mi NW 4.6 mph - N/A   Clear
8:53 AM 45.0 °F - 42.1 °F 90% 30.21 in 10.0 mi Calm Calm - N/A   Clear
9:53 AM 48.9 °F - 43.0 °F 80% 30.21 in 10.0 mi Calm Calm - N/A   Clear
10:53 AM 51.1 °F - 42.1 °F 71% 30.20 in 10.0 mi Calm Calm - N/A   Clear
11:53 AM 54.0 °F - 42.1 °F 64% 30.19 in 10.0 mi Calm Calm - N/A   Clear
12:53 PM 55.0 °F - 43.0 °F 64% 30.17 in 10.0 mi WSW 5.8 mph - N/A   Clear
1:53 PM 55.0 °F - 44.1 °F 67% 30.15 in 10.0 mi SW 4.6 mph - N/A   Clear
2:53 PM 55.9 °F - 44.1 °F 64% 30.14 in 10.0 mi SSW 5.8 mph - N/A   Clear
3:53 PM 55.9 °F - 43.0 °F 62% 30.14 in 10.0 mi SSW 3.5 mph - N/A   Clear
4:53 PM 55.0 °F - 42.1 °F 62% 30.14 in 10.0 mi South 4.6 mph - N/A   Clear
5:53 PM 52.0 °F - 41.0 °F 66% 30.15 in 10.0 mi East 3.5 mph - N/A   Clear
6:53 PM 50.0 °F - 42.1 °F 74% 30.15 in 10.0 mi Calm Calm - N/A   Clear
7:53 PM 48.0 °F - 42.1 °F 80% 30.17 in 10.0 mi Calm Calm - N/A   Clear
8:53 PM 46.0 °F 44.8 °F 42.1 °F 86% 30.19 in 10.0 mi NNW 3.5 mph - N/A   Clear
9:53 PM 44.1 °F 42.5 °F 41.0 °F 89% 30.19 in 10.0 mi NW 3.5 mph - N/A   Partly Cloudy
10:53 PM 42.1 °F 40.2 °F 39.0 °F 89% 30.19 in 10.0 mi WNW 3.5 mph - N/A   Clear
11:48 PM 42.8 °F 41.1 °F 41.0 °F 93% 30.20 in 10.0 mi WNW 3.5 mph - N/A   Overcast
11:53 PM 43.0 °F 41.3 °F 41.0 °F 93% 30.20 in 10.0 mi WNW 3.5 mph - N/A   Overcast